Weather in Cala Blanca

Spain     39°58′15″N   3°50′07″E
temp.,
°C
wind,
m/s
gust,
m/s
humid.,
%
clouds,
%
prec.,
mm/h
press.,
hPa
HPBL,
m
6 august, fri
fri623:00+26sw22785 0.0 101262
02:00+26sw33772 0.0 1012232
05:00+25ssw11710 0.0 1010239
08:00+25e22740 0.0 1011296
11:00+25sse22730 0.0 1012419
14:00+26sse44740 0.0 1011342
17:00+26sse777525 0.0 1009417
20:00+26sse798116 0.0 1008357
7 august, sat
sat723:00+26sse79845 0.0 1008369
02:00+26ssw57840 0.0 1008494
05:00+26s56810 0.0 1006423
08:00+26s78820 0.0 1006471
11:00+26s78830 0.0 1006458
14:00+26sse810820 0.0 1006306
17:00+27sw34780 0.0 100682
20:00+26nnw45810 0.0 1007200
8 august, sun
sun823:00+25nne10108170 0.0 1010603
02:00+24ne11127556 0.0 1012717
05:00+24ne11126813 0.0 1013757
08:00+24ne1111668 0.0 1014720
11:00+24ne996257 0.0 1016792
14:00+24ne88603 0.0 1017768
17:00+24ne77620 0.0 1017633
20:00+24ne66620 0.0 1016529
9 august, mon
mon923:00+24ene566538 0.0 1017383
02:00+24ene45650 0.0 1017303
05:00+25ne55646 0.0 1016383
08:00+25ene566363 0.0 1016425
11:00+26ne34605 0.0 1017287
14:00+27ne44600 0.0 1017250
17:00+27ene34635 0.0 1016180
20:00+27e22665 0.0 101682
10 august, tue
tue1023:00+26ese456527 0.0 1017205
02:00+25e466675 0.0 1017260
05:00+25ene567068 0.0 1015296
08:00+26nne78718 0.0 1016451
11:00+27ene796183 0.0 1016290
14:00+28se456119 0.0 101569
17:00+27s23680 0.0 1014131
20:00+27nne3371100 0.0 1013129